Regional Weather Roundup
Issued by NWS

Home | Current Version | Previous Version | Graphics & Text | Print | Product List | Glossary On
Versions: 1 2 3 4 5 6 7 8 9 10 11 12 13 14 15 16 17 18 19 20 21 22 23 24 25 26 27
000
ASUS45 KTFX 241610
RWRMT
MONTANA REGIONAL WEATHER ROUNDUP
NATIONAL WEATHER SERVICE GREAT FALLS MT
1000 AM MDT SAT SEP 24 2016

NOTE: "FAIR" INDICATES FEW OR NO CLOUDS BELOW 12000 FEET WITH NO
SIGNIFICANT WEATHER AND/OR OBSTRUCTIONS TO VISIBILITY.

MTZ001>007-043-241700-
WEST OF THE DIVIDE

CITY           SKY/WX    TMP DP  RH WIND       PRES   REMARKS
KALISPELL      CLOUDY    52  43  71 S6        30.20R
MISSOULA       CLOUDY    53  42  66 NW9       30.24R
BUTTE          CLOUDY    45  34  65 NW7       30.19R
MULLAN PASS    FOG       38  37  97 VRB3      30.26R VSB 1/4
ANACONDA         N/A     48  34  57 W9        30.19R
DEER LODGE       N/A     50  34  53 NW17G23   30.22R
EUREKA           N/A     54  39  58 SE5       30.20R
HAMILTON         N/A     54  39  58 CALM      30.23R
LIBBY            N/A     52  43  71 CALM      30.22R
PLAINS           N/A     54  46  74 CALM      30.23R
RONAN            N/A     55  42  61 E1        30.25R
$$

MTZ008-052>055-241700-
SOUTHWEST MONTANA

CITY           SKY/WX    TMP DP  RH WIND       PRES   REMARKS
BOZEMAN        CLOUDY    49  40  71 W10       30.14R
DILLON         CLOUDY    51  38  60 CALM      30.17R
W YELLOWSTONE  CLOUDY    45  32  61 NE8       30.14R
ENNIS          CLOUDY    50  36  57 N12       30.20R
THREE FORKS      N/A     54  54 100 W16       30.11R
TWIN BRIDGES     N/A     51  33  50 N8        30.13S
$$

MTZ009-010-012-014-046-048-049-054-241700-
EAST SLOPES AND CENTRAL MONTANA

CITY           SKY/WX    TMP DP  RH WIND       PRES   REMARKS
CUT BANK       MOSUNNY   53  34  48 W23G33    30.07R
GREAT FALLS    CLOUDY    55  38  52 W16       30.08R
MALMSTROM AFB  CLOUDY    52  40  63 W14       30.07R
HELENA         CLOUDY    53  36  52 W23G30    30.12R
AUGUSTA          N/A     54  31  42 W22G30    30.09R
BOWMANS CRNR     N/A     53  33  47 W22G28    30.09R
CHOTEAU          N/A     57  32  38 W18G25    30.10R
CONRAD           N/A     57  41  55 SW17      30.08R
FAIRFIELD      PTSUNNY   53  37  54 W8        30.08R
POWER          PTSUNNY   51  39  64 W10       30.07R
RAYNESFORD     PTSUNNY   53  39  60 W15G26    30.06R
$$

MTZ011-013-016-021-045-047-050-051-241700-
NORTH CENTRAL MONTANA

CITY           SKY/WX    TMP DP  RH WIND       PRES   REMARKS
HAVRE          PTSUNNY   51  43  74 W15       29.96R
LEWISTOWN      CLOUDY    49  40  71 W10       30.02R
N BAR RANCH      N/A     50  39  66 NW20G28   30.00R
CHINOOK          N/A     52  45  76 W9        29.95R
DENTON           N/A     53  40  62 NW21G28   29.98R
GEYSER           N/A     54  31  42 W22G30    30.09R
GRASS RANGE    PTSUNNY   53  38  57 W21G26    29.96R
JUDITH GAP     CLOUDY    49  39  68 N17G25    30.01R
ROY            PTSUNNY   51  42  71 MISG      29.95R
STANFORD         N/A     52  40  63 NW23G31   30.02R
WINIFRED         N/A     50  42  72 W16G23    30.00R
$$

MTZ017>020-022>027-061-062-241700-
NORTHEAST MONTANA

CITY           SKY/WX    TMP DP  RH WIND       PRES   REMARKS
GLASGOW        LGT RAIN  49  48  97 W10G18    29.87F FOG
JORDAN           N/A     50  48  93 W7        29.89S
SIDNEY         CLOUDY    56  54  93 N10       29.76S
WOLF POINT     CLOUDY    54  51  90 SW8       29.81F
PLENTYWOOD       N/A     54  54 100 N15       29.79F
POPLAR           N/A     55  52  88 NW9       29.79F
SCOBEY           N/A     51  47  86 E7        29.82F
$$

MTZ028>42-056>058-241700-
SOUTHCENTRAL AND SOUTHEAST MONTANA

CITY           SKY/WX    TMP DP  RH WIND       PRES   REMARKS
BAKER          CLOUDY    53  51  93 N8        29.73R
BILLINGS       LGT RAIN  50  44  80 W15       29.96F
LIVINGSTON     CLOUDY    50  39  66 W15       30.08R
MILES CITY     RAIN      51  50  96 NW23G31   29.76S FOG
BIG TIMBER     MOSUNNY   52  37  58 W28G36    30.06R
EKALAKA          N/A     52  50  93 W6        29.75R
FORSYTH          N/A     50  50 100 W15G28    29.85R
HARLOWTON      PTSUNNY   51  40  66 W28G37    30.02R
LAUREL           N/A     51  43  74 CALM      29.97R
ROUNDUP          N/A     54  38  54 W15       29.87F
$$

REGIONAL REPORTS...DAKOTAS

CITY           SKY/WX    TMP DP  RH WIND       PRES   REMARKS
WILLISTON      CLOUDY    57  55  93 N13       29.76R
MINOT          LGT RAIN  65  64  97 E12       29.75R FOG
DICKINSON      FOG       58  58 100 NE8       29.69F VSB<1/4
CROSBY         CLOUDY    54  54 100 N12       29.78F FOG
WATFORD CITY   FOG       55  55 100 NE10      29.75F VSB 3/4
BISMARCK       CLOUDY    70  64  81 SE13      29.74S
GRAND FORKS    CLOUDY    68  64  87 SE15      29.86S
FARGO          PTSUNNY   74  65  73 SE22G29   29.87F
BUFFALO SD       N/A     59  57  93 SW21      29.65R
RAPID CITY     SUNNY     62  45  53 W10       29.79S
$$

REGIONAL REPORTS...WYOMING/IDAHO/WASHINGTON

CITY           SKY/WX    TMP DP  RH WIND       PRES   REMARKS
GILLETTE       RAIN      47  46  97 W17       29.86R FOG
SHERIDAN       RAIN      45  41  86 W25G35    29.94R FOG
BUFFALO WY     LGT RAIN  43  37  79 NW18G29   29.94R
CODY           RAIN      44  42  93 SW13      30.04R
YELLOWSTONE LA   N/A     37  36  96 VRB5      30.13S
IDAHO FALLS    CLOUDY    50  45  83 SW18      30.17R
SALMON         CLOUDY    54  37  54 W5        30.22R
BOISE          PTSUNNY   53  41  63 W10       30.27R
SPOKANE        CLOUDY    43  42  97 S5        30.31R
$$

REGIONAL REPORTS...ALBERTA

CITY           SKY/WX    TMP DP  RH WIND       PRES   REMARKS
EDMONTON       MOSUNNY   52  37  58 W16G22    30.02S
CALGARY        PTSUNNY   48  37  66 N20G29    30.12R
LETHBRIDGE     LGT RAIN  54  41  62 W16       30.08R
MEDICINE HAT   MOSUNNY   52  43  71 NW16      29.97R
$$

REGIONAL REPORTS...SASKATCHEWAN

CITY           SKY/WX    TMP DP  RH WIND       PRES   REMARKS
SWIFT CURRENT  FOG       46  46 100 W12       29.89R VSB 1/8
REGINA         LGT RAIN  52  52 100 NW6       29.85R VSB 1
SASKATOON      CLOUDY    52  52 100 NW9       29.90R
$$




USA.gov is the U.S. government's official web portal to all federal, state and local government web resources and services.